{"data":{"norad_id":62816,"epoch":"2026-09-21T22:31:24.499200Z","epoch_age_seconds":43887,"freshness":"FRESH","line1":"1 62816U 25018L   26264.93847800  .00012334  00000+0  37555-3 0  9998","line2":"2 62816  53.1575 115.3011 0001556 126.5044 233.6102 15.34403230 93242","mean_motion":15.3440323,"eccentricity":0.0001556,"inclination_deg":53.1575,"raan_deg":115.3011,"arg_perigee_deg":126.5044,"mean_anomaly_deg":233.6102,"bstar":0.00037555,"rev_number":9324,"period_min":93.847560526838,"perigee_km":461.62920673567,"apogee_km":463.75807323084,"semimajor_km":6840.8306399833,"source":"CELESTRAK","updated_at":"2026-09-22T09:00:49.668574Z"}}